Location: ????????
(60.5616°N, 46.8254°E)
Time: 15:03:09
(UTC+00:00)

Cosmos 2297 - Pass Details

Date: 18 February 2020
Orbit: 837 x 857 km, 71.0° (Epoch: 27 March)

Event Time Altitude Azimuth Distance (km) Brightness Sun altitude
Rises 15:49:24 0° 199° (SSW) 3,394 7.0 -15.4°
Reaches altitude 10° 15:51:53 10° 195° (SSW) 2,460 6.2 -15.7°
Maximum altitude 15:57:21 54° 119° (ESE) 1,017 3.8 -16.4°
Enters shadow 16:02:30 12° 45° (NE) 2,339 5.6 -17.0°
